{"data":{"norad_id":67095,"intl_designator":"2025-298W","name":"STARLINK-36227","alt_names":[],"object_type":"PAYLOAD","status":"ACTIVE","operator":null,"country":"US","launch_date":"2025-12-14","launch_site_code":"AFWTR","launch_vehicle":null,"mission":null,"orbit_class":"UNKNOWN","rcs_meters":null,"size_class":null,"mass_kg":null,"dimensions":null,"purposes":["comms"],"wikipedia_slug":null,"has_3d_model":false,"image_url":null,"decayed_at":null,"tle_current":{"epoch":"2026-09-20T22:24:33.364800Z","epoch_age_seconds":40815,"freshness":"FRESH","line1":"1 67095U 25298W   26263.93371950  .00001449  00000+0  12918-3 0  9990","line2":"2 67095  69.9987 242.1475 0003864 266.4377  93.6340 14.98345029 42464","mean_motion":14.98345029,"eccentricity":0.0003864,"inclination_deg":69.9987,"raan_deg":242.1475,"arg_perigee_deg":266.4377,"mean_anomaly_deg":93.634,"bstar":0.00012918,"rev_number":4246,"period_min":96.106035134048,"perigee_km":569.32387881523,"apogee_km":574.69495196505,"semimajor_km":6950.1464153901,"source":"CELESTRAK","updated_at":"2026-09-21T09:00:36.101758Z"}}}